Weather History for KOFK - January, 2012

Change the Weather History Date:

Friday, January 6, 2012

  Actual Average Record
Temperature  
Mean Temperature 39 °F 22 °F  
Max Temperature 51 °F 33 °F 58 °F (1933)
Min Temperature 27 °F 12 °F -24 °F (1912)
Degree Days  
Heating Degree Days 26 43  
Month to date heating degree days 170 258  
Since 1 July heating degree days 2654 2964  
Cooling Degree Days 0 0  
Month to date cooling degree days 0 0  
Year to date cooling degree days 0 0  
Moisture  
Dew Point 21 °F    
Average Humidity 47    
Maximum Humidity 64    
Minimum Humidity 29    
Precipitation  
Precipitation 0.00 in 0.02 in 0.26 in (1967)
Month to date precipitation 0.00 0.11  
Year to date precipitation 0.00 0.11  
Snow  
Snow 0.00 in 0.20 in - ()
Month to date snowfall 0.0 1.1  
Since 1 July snowfall 8.1 12.0  
Snow Depth 0.00 in    
Sea Level Pressure  
Sea Level Pressure 29.95 in    
Wind  
Wind Speed 11 mph (NW)    
Max Wind Speed 23 mph    
Max Gust Speed 28 mph    
Visibility 10 miles    
Events      
T = Trace of Precipitation, MM = Missing Value Source: NWS Daily Summary

Daily Weather History Graph

Daily Weather History Graph

Search for Another Location

Airport or City:

Trip Planner

Search our weather history database for the weather conditions in past years. The results will help you decide how hot, cold, wet, or windy it might be!

Date:

Astronomy

Jan. 06, 2012 Rise Set
Actual Time 7:57 AM CST 5:13 PM CST
Civil Twilight 7:26 AM CST 5:44 PM CST
Nautical Twilight 6:51 AM CST 6:19 PM CST
Astronomical Twilight 6:17 AM CST 6:53 PM CST
Moon 3:04 PM CST (1/6) 5:39 AM CST (1/6)
Length of Visible Light 10h 18m
Length of Day
9h 15m
Waxing Gibbous, 93% of the Moon is Illuminated
Jan 6
Waxing Gibbous
Jan 9
Full
Jan 16
Last Quarter
Jan 23
New
Jan 30
First Quarter

Hourly Weather History & Observations

Time (CST) Temp. Windchill Dew Point Humidity Pressure Visibility Wind Dir Wind Speed Gust Speed Precip Events Conditions
1:56 AM 35.1 °F 29.3 °F 24.1 °F 64% 29.71 in 10.0 mi West 6.9 mph - N/A   Clear
2:56 AM 37.0 °F 31.0 °F 24.1 °F 59% 29.73 in 10.0 mi WNW 8.1 mph - N/A   Clear
4:56 AM 39.0 °F 31.8 °F 25.0 °F 57% 29.79 in 10.0 mi NNW 11.5 mph - N/A   Clear
5:56 AM 37.9 °F 30.9 °F 24.1 °F 57% 29.82 in 10.0 mi NNW 10.4 mph - N/A   Clear
6:56 AM 37.0 °F 29.3 °F 24.1 °F 59% 29.86 in 10.0 mi NNW 11.5 mph - N/A   Clear
7:56 AM 37.0 °F 30.4 °F 24.1 °F 59% 29.88 in 10.0 mi NW 9.2 mph - N/A   Clear
8:56 AM 37.9 °F 30.0 °F 24.1 °F 57% 29.92 in 10.0 mi NNW 12.7 mph - N/A   Clear
9:56 AM 45.0 °F 37.6 °F 25.0 °F 46% 29.94 in 10.0 mi NW 17.3 mph - N/A   Clear
10:56 AM 44.1 °F 36.8 °F 24.1 °F 45% 29.97 in 10.0 mi NNW 16.1 mph - N/A   Clear
11:56 AM 46.0 °F 39.9 °F 24.1 °F 42% 29.96 in 10.0 mi NW 13.8 mph - N/A   Clear
1:56 PM 48.9 °F - 21.0 °F 33% 29.95 in 10.0 mi NW 13.8 mph - N/A   Clear
3:56 PM 48.0 °F - 18.0 °F 30% 29.99 in 10.0 mi NW 13.8 mph 23.0 mph N/A   Mostly Cloudy
4:56 PM 44.1 °F 40.1 °F 17.1 °F 34% 30.01 in 10.0 mi NW 6.9 mph - N/A   Clear
5:56 PM 39.9 °F 34.5 °F 17.1 °F 40% 30.04 in 10.0 mi NW 8.1 mph - N/A   Clear
6:56 PM 37.9 °F 32.1 °F 17.1 °F 43% 30.06 in 10.0 mi WNW 8.1 mph - N/A   Clear
8:56 PM 30.9 °F 24.3 °F 17.1 °F 57% 30.09 in 10.0 mi West 6.9 mph - N/A   Clear
9:56 PM 30.9 °F 23.5 °F 17.1 °F 57% 30.09 in 10.0 mi West 8.1 mph - N/A   Clear
10:56 PM 28.9 °F 21.1 °F 17.1 °F 61% 30.09 in 10.0 mi WSW 8.1 mph - N/A   Clear
11:56 PM 28.9 °F 20.4 °F 18.0 °F 64% 30.09 in 10.0 mi West 9.2 mph - N/A   Clear